Location: Poughquag
(41.6090°N, 73.6820°W)
Time: 04:42:35
(UTC-04:00)

OTV 5 (USA 277) - Visible Passes

Search period start: 24 March 2019 00:00
Search period end: 03 April 2019 00:00
Orbit: 315 x 320 km, 54.5° (Epoch: 14 March)

Date Brightness Start Highest point End Pass type
(mag) Time Alt. Az. Time Alt. Az. Time Alt. Az.
31 Mar ? 05:40:54 10° S 05:43:07 23° SE 05:45:21 10° ENE visible
01 Apr ? 05:55:01 10° SW 05:57:42 72° SE 06:00:24 10° NE visible
02 Apr ? 04:38:33 14° ESE 04:38:33 14° ESE 04:39:53 10° E visible
